Погода в Жилетове

Россия / Калужская область     54°41′35″N   36°01′20″E
темп.,
°C
ветер,
м/с
пор.,
м/с
влажн.,
%
обл.,
%
осадки,
мм/ч
давл.,
гПа
погр.,
м
2 декабря, чт
чт200:00−7з498474 0.1 998574
03:00−8з498616 0.1 1000430
06:00−7зюз388937 0.0 1002343
09:00−6ююз3993100 0.0 1003367
12:00−3ю51083100 0.0 1001498
15:00−3ю61495100 0.5 999748
18:00−2ю51395100 1.6 998615
21:000ююз51395100 1.9 998567
3 декабря, пт
пт300:00+1ююз51398100 0.0 998499
03:00+2юз61291100 0.0 999747
06:00+2юз51288100 0.0 1000727
09:00+1юз5118793 0.0 1002351
12:00+1ююз41089100 0.0 1002492
15:00+1ю379499 0.0 1002311
18:000з14100100 3.6 1001273
21:000з3799100 6.1 1001423
4 декабря, сб
сб400:00−1зюз41092100 0.8 1002572
03:00−2зюз512868 0.8 1004544
06:00−4юз5128943 0.0 1005433
09:00−4зюз6139093 0.0 1007599
12:00−2зюз6108047 0.1 10081002
15:00−3зюз5108168 0.1 1010618
18:00−4зюз498913 0.0 1012306
21:00−6юз38945 0.0 1014181
5 декабря, вс
вс500:00−7юз249714 0.0 101662
03:00−7ююз119898 0.0 101633
06:00−5ю2395100 0.1 1017105
09:00−4ю2595100 0.1 1018157
12:00−2ю2491100 0.0 1018280
15:00−2юв2591100 0.0 1018216
18:00−3юв2694100 0.0 1019186
21:00−3вюв3990100 0.0 1019302
6 декабря, пн
пн600:00−3вюв41089100 0.2 1019389
03:00−2вюв51283100 0.2 1019429
06:00−2вюв61281100 0.0 1018515
09:00−3вюв61495100 0.8 1019571
12:00−2вюв51296100 1.9 1019542
15:00−2вюв41097100 3.8 1019459
18:00−1вюв4997100 1.4 1019368
21:00−1вюв4996100 1.6 1019338